Location: Asheville, NC
(35.6000°N, 82.5500°W)
Time: 12:04:08

YUBILEINY - Pass Details

Date: 12 March 2018
Orbit: 1478 x 1509 km, 82.5° (Epoch: 24 March)

Event Time Altitude Azimuth Distance (km) Brightness Sun altitude
Rises 05:38:02 0° 359° (N) 4,610 ? -26.4°
Reaches altitude 10° 05:41:07 10° 6° (N) 3,630 ? -25.8°
Maximum altitude 05:49:23 45° 77° (ENE) 1,944 ? -24.2°
Drops below altitude 10° 05:57:38 10° 148° (SSE) 3,636 ? -22.6°
Sets 06:00:42 0° 154° (SSE) 4,618 ? -22.0°
